Location: Lake Crest
(37.6062°N, 88.9176°W)
Time: 16:10:20
(UTC+00:00)

Cosmos 1461 - Pass Details

Date: 15 December 2019
Orbit: 518 x 648 km, 65.0° (Epoch: 19 January)

Event Time Altitude Azimuth Distance (km) Brightness Sun altitude
Rises 00:17:36 0° 198° (SSW) 2,630 6.8 -19.1°
Reaches altitude 10° 00:19:48 10° 193° (SSW) 1,742 5.7 -19.5°
Enters shadow 00:23:26 51° 126° (SE) 653 2.9 -20.2°
